Alva, OK

3:22 AM CST on February 07, 2016 (GMT -0600)
Alva Regional

Weather History for KAVK - November, 2012

Change the Weather History Date:

Friday, November 9, 2012

  Actual Average Record
Temperature  
Mean Temperature 68 °F -  
Max Temperature 82 °F 62 °F - (-1)
Min Temperature 55 °F 39 °F - (-1)
Cooling Degree Days 4    
Growing Degree Days 18 (Base 50)    
Moisture  
Dew Point 52 °F    
Average Humidity 55    
Maximum Humidity 82    
Minimum Humidity 30    
Precipitation  
Precipitation 0.00 in - - ()
Sea Level Pressure  
Sea Level Pressure 29.75 in    
Wind  
Wind Speed 15 mph (SSW)    
Max Wind Speed 28 mph    
Max Gust Speed 38 mph    
Visibility 10 miles    
Events      
Averages and records for this station are not official NWS values.
T = Trace of Precipitation, MM = Missing Value Source: NWS Daily Summary

Daily Weather History Graph

Daily Weather History Graph

Search for Another Location

Airport or City:

Trip Planner

Search our weather history database for the weather conditions in past years. The results will help you decide how hot, cold, wet, or windy it might be!

Date:

Astronomy

Nov. 09, 2012 Rise Set
Actual Time 7:07 AM CST 5:29 PM CST
Civil Twilight 6:39 AM CST 5:56 PM CST
Nautical Twilight 6:08 AM CST 6:27 PM CST
Astronomical Twilight 5:38 AM CST 6:58 PM CST
Moon 2:14 AM CST (11/9) 2:37 PM CST (11/9)
Length of Visible Light 11h 17m
Length of Day
10h 22m
Waning Crescent, 23% of the Moon is Illuminated
Nov 9
Waning Crescent
Nov 13
New
Nov 20
First Quarter
Nov 28
Full
Dec 6
Last Quarter

Hourly Weather History & Observations

Time (CST) Temp. Dew Point Humidity Pressure Visibility Wind Dir Wind Speed Gust Speed Precip Events Conditions
12:15 AM 55.4 °F 48.2 °F 77% 29.79 in 10.0 mi SSW 5.8 mph - N/A   Clear
12:35 AM 55.4 °F 48.2 °F 77% 29.79 in 10.0 mi SSW 9.2 mph - N/A   Clear
12:55 AM 55.4 °F 48.2 °F 77% 29.79 in 10.0 mi SSW 8.1 mph - N/A   Clear
1:15 AM 55.4 °F 48.2 °F 77% 29.78 in 10.0 mi SSW 8.1 mph - N/A   Clear
1:35 AM 55.4 °F 50.0 °F 82% 29.78 in 10.0 mi SSW 11.5 mph - N/A   Clear
1:55 AM 59.0 °F 51.8 °F 77% 29.78 in 10.0 mi SSW 10.4 mph - N/A   Clear
2:15 AM 59.0 °F 51.8 °F 77% 29.78 in 10.0 mi SSW 11.5 mph - N/A   Clear
2:35 AM 60.8 °F 51.8 °F 72% 29.78 in 10.0 mi SSW 11.5 mph - N/A   Clear
2:55 AM 62.6 °F 51.8 °F 68% 29.78 in 10.0 mi SSW 12.7 mph - N/A   Clear
3:15 AM 62.6 °F 51.8 °F 68% 29.77 in 10.0 mi SSW 15.0 mph - N/A   Clear
3:35 AM 62.6 °F 50.0 °F 63% 29.77 in 10.0 mi SSW 12.7 mph - N/A   Clear
3:55 AM 62.6 °F 50.0 °F 63% 29.77 in 10.0 mi SSW 12.7 mph - N/A   Clear
4:15 AM 64.4 °F 50.0 °F 59% 29.77 in 10.0 mi SSW 15.0 mph 20.7 mph N/A   Clear
4:35 AM 64.4 °F 50.0 °F 59% 29.78 in 10.0 mi SSW 12.7 mph - N/A   Clear
4:55 AM 64.4 °F 51.8 °F 64% 29.78 in 10.0 mi SSW 13.8 mph - N/A   Clear
5:15 AM 64.4 °F 51.8 °F 64% 29.79 in 10.0 mi SSW 13.8 mph - N/A   Clear
5:35 AM 64.4 °F 51.8 °F 64% 29.79 in 10.0 mi SSW 12.7 mph 20.7 mph N/A   Clear
5:55 AM 64.4 °F 51.8 °F 64% 29.79 in 10.0 mi SSW 16.1 mph 20.7 mph N/A   Clear
6:15 AM 62.6 °F 51.8 °F 68% 29.79 in 10.0 mi SSW 15.0 mph - N/A   Clear
6:35 AM 62.6 °F 51.8 °F 68% 29.79 in 10.0 mi SSW 9.2 mph - N/A   Clear
6:55 AM 62.6 °F 51.8 °F 68% 29.79 in 10.0 mi SSW 10.4 mph - N/A   Clear
7:15 AM 60.8 °F 51.8 °F 72% 29.80 in 10.0 mi South 9.2 mph - N/A   Clear
7:35 AM 62.6 °F 53.6 °F 72% 29.80 in 10.0 mi South 13.8 mph - N/A   Clear
7:55 AM 64.4 °F 53.6 °F 68% 29.80 in 10.0 mi South 15.0 mph - N/A   Clear
8:15 AM 64.4 °F 53.6 °F 68% 29.80 in 10.0 mi South 16.1 mph - N/A   Clear
8:35 AM 66.2 °F 53.6 °F 64% 29.80 in 10.0 mi South 20.7 mph - N/A   Clear
8:55 AM 68.0 °F 53.6 °F 60% 29.80 in 10.0 mi SSW 26.5 mph 33.4 mph N/A   Clear
9:15 AM 68.0 °F 53.6 °F 60% 29.80 in 10.0 mi SSW 23.0 mph - N/A   Clear
9:35 AM 69.8 °F 53.6 °F 56% 29.80 in 10.0 mi SSW 21.9 mph - N/A   Clear
9:55 AM 71.6 °F 53.6 °F 53% 29.79 in 10.0 mi South 23.0 mph 27.6 mph N/A   Clear
10:15 AM 73.4 °F 53.6 °F 50% 29.79 in 10.0 mi SSW 24.2 mph 31.1 mph N/A   Clear
10:35 AM 73.4 °F 51.8 °F 47% 29.79 in 10.0 mi SSW 23.0 mph 29.9 mph N/A   Clear
10:55 AM 75.2 °F 51.8 °F 44% 29.78 in 10.0 mi SSW 17.3 mph 27.6 mph N/A   Clear
11:15 AM 75.2 °F 51.8 °F 44% 29.78 in 10.0 mi SSW 18.4 mph 24.2 mph N/A   Clear
11:35 AM 77.0 °F 51.8 °F 41% 29.78 in 10.0 mi SSW 19.6 mph 25.3 mph N/A   Clear
11:55 AM 77.0 °F 51.8 °F 41% 29.76 in 10.0 mi SSW 21.9 mph 26.5 mph N/A   Clear
12:15 PM 78.8 °F 50.0 °F 36% 29.74 in 10.0 mi SSW 23.0 mph 28.8 mph N/A   Clear
12:35 PM 80.6 °F 50.0 °F 34% 29.73 in 10.0 mi SSW 21.9 mph 25.3 mph N/A   Clear
12:55 PM 80.6 °F 50.0 °F 34% 29.72 in 10.0 mi South 19.6 mph 29.9 mph N/A   Clear
1:15 PM 80.6 °F 50.0 °F 34% 29.71 in 10.0 mi South 20.7 mph 29.9 mph N/A   Clear
1:35 PM 82.4 °F 50.0 °F 32% 29.71 in 10.0 mi South 26.5 mph 33.4 mph N/A   Clear
1:55 PM 82.4 °F 48.2 °F 30% 29.70 in 10.0 mi South 26.5 mph 32.2 mph N/A   Clear
2:15 PM 82.4 °F 48.2 °F 30% 29.70 in 10.0 mi SSW 27.6 mph 33.4 mph N/A   Clear
2:35 PM 82.4 °F 48.2 °F 30% 29.69 in 10.0 mi SSW 25.3 mph 35.7 mph N/A   Clear
2:55 PM 82.4 °F 48.2 °F 30% 29.69 in 10.0 mi SSW 26.5 mph 34.5 mph N/A   Clear
3:15 PM 82.4 °F 48.2 °F 30% 29.70 in 10.0 mi South 27.6 mph 38.0 mph N/A   Clear
3:35 PM 82.4 °F 48.2 °F 30% 29.69 in 10.0 mi South 27.6 mph 34.5 mph N/A   Clear
3:55 PM 80.6 °F 48.2 °F 32% 29.69 in 10.0 mi South 24.2 mph 33.4 mph N/A   Clear
4:15 PM 80.6 °F 50.0 °F 34% 29.69 in 10.0 mi South 25.3 mph 36.8 mph N/A   Clear
4:35 PM 78.8 °F 51.8 °F 39% 29.68 in 10.0 mi South 26.5 mph 33.4 mph N/A   Clear
4:55 PM 77.0 °F 53.6 °F 44% 29.69 in 10.0 mi South 24.2 mph 32.2 mph N/A   Clear
5:15 PM 77.0 °F 53.6 °F 44% 29.69 in 10.0 mi South 23.0 mph 31.1 mph N/A   Clear
5:35 PM 75.2 °F 53.6 °F 47% 29.70 in 10.0 mi South 16.1 mph - N/A   Clear
5:55 PM 73.4 °F 53.6 °F 50% 29.70 in 10.0 mi South 17.3 mph - N/A   Clear
6:15 PM 73.4 °F 55.4 °F 53% 29.71 in 10.0 mi South 16.1 mph - N/A   Clear
6:35 PM 73.4 °F 55.4 °F 53% 29.71 in 10.0 mi South 18.4 mph - N/A   Clear
6:55 PM 73.4 °F 55.4 °F 53% 29.72 in 10.0 mi South 17.3 mph - N/A   Clear
7:35 PM 71.6 °F 55.4 °F 57% 29.71 in 10.0 mi South 19.6 mph 26.5 mph N/A   Clear
7:55 PM 71.6 °F 55.4 °F 57% 29.71 in 10.0 mi South 19.6 mph 26.5 mph N/A   Partly Cloudy
8:15 PM 71.6 °F 55.4 °F 57% 29.71 in 10.0 mi South 23.0 mph 28.8 mph N/A   Clear
8:35 PM 71.6 °F 55.4 °F 57% 29.72 in 10.0 mi South 21.9 mph 31.1 mph N/A   Clear
8:55 PM 71.6 °F 55.4 °F 57% 29.72 in 10.0 mi South 21.9 mph 28.8 mph N/A   Scattered Clouds
9:15 PM 71.6 °F 55.4 °F 57% 29.73 in 10.0 mi South 23.0 mph 28.8 mph N/A   Partly Cloudy
9:35 PM 71.6 °F 55.4 °F 57% 29.73 in 10.0 mi South 24.2 mph 29.9 mph N/A   Clear
9:55 PM 71.6 °F 55.4 °F 57% 29.73 in 10.0 mi South 21.9 mph 26.5 mph N/A   Clear
10:15 PM 71.6 °F 55.4 °F 57% 29.73 in 10.0 mi South 24.2 mph 28.8 mph N/A   Clear
10:35 PM 71.6 °F 55.4 °F 57% 29.73 in 10.0 mi South 24.2 mph 32.2 mph N/A   Clear
10:55 PM 71.6 °F 55.4 °F 57% 29.74 in 10.0 mi South 20.7 mph 28.8 mph N/A   Clear
11:15 PM 71.6 °F 55.4 °F 57% 29.74 in 10.0 mi SSW 26.5 mph 33.4 mph N/A   Partly Cloudy
11:35 PM 71.6 °F 55.4 °F 57% 29.75 in 10.0 mi SSW 19.6 mph 26.5 mph N/A   Clear
11:55 PM 71.6 °F 55.4 °F 57% 29.75 in 10.0 mi SSW 23.0 mph 29.9 mph N/A   Clear